Time,TemperatureF,DewpointF,PressureIn,WindDirection,WindDirectionDegrees,WindSpeedMPH,WindSpeedGustMPH,Humidity,HourlyPrecipIn,Conditions,Clouds,dailyrainin,SoftwareType,DateUTC
2013-04-01 01:42:00,42.3,41.8,29.71,SE,142,6.9,14.3,98,0.10,n/a,n/a,-99.99,Henriksen +1-Wire,2013-04-01 05:42:00,
2013-04-01 01:43:00,42.3,41.9,29.71,SE,142,6.3,14.3,98,0.10,n/a,n/a,-99.99,Henriksen +1-Wire,2013-04-01 05:43:00,
2013-04-01 01:44:00,42.3,41.9,29.71,SE,141,5.7,14.3,98,0.10,n/a,n/a,-99.99,Henriksen +1-Wire,2013-04-01 05:44:00,
2013-04-01 01:45:00,42.3,41.9,29.71,SE,143,4.8,14.3,98,0.11,n/a,n/a,-99.99,Henriksen +1-Wire,2013-04-01 05:45:00,
2013-04-01 01:50:00,42.2,41.9,29.70,SE,139,4.3,11.8,98,0.11,n/a,n/a,-99.99,Henriksen +1-Wire,2013-04-01 05:50:00,
2013-04-01 01:56:00,42.1,41.9,29.70,SE,134,4.6,11.0,99,0.12,n/a,n/a,-99.99,Henriksen +1-Wire,2013-04-01 05:56:00,
2013-04-01 03:57:00,41.8,41.8,29.58,ENE,66,7.0,9.6,100,0.12,n/a,n/a,-99.99,Henriksen +1-Wire,2013-04-01 07:57:00,
2013-04-01 05:57:00,41.6,41.6,29.53,NE,39,6.1,7.9,100,0.00,n/a,n/a,-99.99,Henriksen +1-Wire,2013-04-01 09:57:00,
2013-04-01 06:03:00,41.6,41.6,29.53,NNE,18,4.0,8.0,100,0.00,n/a,n/a,-99.99,Henriksen +1-Wire,2013-04-01 10:03:00,
2013-04-01 06:09:00,41.6,41.6,29.53,NNE,33,5.0,8.0,100,0.00,n/a,n/a,-99.99,Henriksen +1-Wire,2013-04-01 10:09:00,
2013-04-01 08:09:00,42.1,42.1,29.58,NNW,328,5.5,9.5,100,0.00,n/a,n/a,-99.99,Henriksen +1-Wire,2013-04-01 12:09:00,
2013-04-01 08:14:00,42.2,42.2,29.57,NNW,335,3.3,9.5,100,0.00,n/a,n/a,-99.99,Henriksen +1-Wire,2013-04-01 12:14:00,
2013-04-01 08:19:00,42.2,42.2,29.57,NNW,333,5.5,7.9,99,0.00,n/a,n/a,-99.99,Henriksen +1-Wire,2013-04-01 12:19:00,
2013-04-01 08:25:00,42.2,42.1,29.57,NNW,346,4.6,8.0,99,0.00,n/a,n/a,-99.99,Henriksen +1-Wire,2013-04-01 12:25:00,
2013-04-01 08:31:00,42.3,42.0,29.57,NNW,339,4.9,8.8,99,0.00,n/a,n/a,-99.99,Henriksen +1-Wire,2013-04-01 12:31:00,
2013-04-01 08:37:00,42.6,42.1,29.57,NNW,346,3.8,8.8,98,0.00,n/a,n/a,-99.99,Henriksen +1-Wire,2013-04-01 12:37:00,
2013-04-01 08:42:00,43.2,42.5,29.56,NW,318,2.3,7.9,97,0.00,n/a,n/a,-99.99,Henriksen +1-Wire,2013-04-01 12:42:00,
2013-04-01 08:47:00,43.3,42.6,29.56,NW,326,4.7,7.9,97,0.00,n/a,n/a,-99.99,Henriksen +1-Wire,2013-04-01 12:47:00,
2013-04-01 10:53:00,50.0,44.2,29.57,NW,316,3.2,7.9,80,0.00,n/a,n/a,-99.99,Henriksen +1-Wire,2013-04-01 14:53:00,
2013-04-01 10:58:00,50.3,44.3,29.57,WNW,295,3.9,6.9,79,0.00,n/a,n/a,-99.99,Henriksen +1-Wire,2013-04-01 14:58:00,
2013-04-01 11:03:00,50.1,43.9,29.57,WNW,293,3.5,11.1,78,0.00,n/a,n/a,-99.99,Henriksen +1-Wire,2013-04-01 15:03:00,
2013-04-01 11:08:00,50.4,43.8,29.57,WNW,295,3.3,11.1,78,0.00,n/a,n/a,-99.99,Henriksen +1-Wire,2013-04-01 15:08:00,
2013-04-01 13:13:00,56.4,43.3,29.54,South,183,6.0,11.9,61,0.00,n/a,n/a,-99.99,Henriksen +1-Wire,2013-04-01 17:13:00,
2013-04-01 15:13:00,47.0,42.7,29.50,South,191,5.7,9.5,84,0.00,n/a,n/a,-99.99,Henriksen +1-Wire,2013-04-01 19:13:00,
2013-04-01 15:19:00,46.8,42.7,29.50,SSW,192,3.6,9.5,85,0.00,n/a,n/a,-99.99,Henriksen +1-Wire,2013-04-01 19:19:00,
2013-04-01 15:24:00,46.8,42.8,29.50,South,186,3.6,8.8,85,0.00,n/a,n/a,-99.99,Henriksen +1-Wire,2013-04-01 19:24:00,
2013-04-01 17:26:00,47.7,42.9,29.52,NW,319,3.1,6.4,83,0.01,n/a,n/a,-99.99,Henriksen +1-Wire,2013-04-01 21:26:00,
2013-04-01 19:31:00,44.5,32.5,29.60,NNW,328,7.2,15.0,62,0.00,n/a,n/a,-99.99,Henriksen +1-Wire,2013-04-01 23:31:00,
2013-04-01 19:36:00,44.1,30.6,29.61,NNW,328,7.8,15.0,58,0.00,n/a,n/a,-99.99,Henriksen +1-Wire,2013-04-01 23:36:00,
2013-04-01 19:41:00,43.8,29.3,29.61,NW,316,8.4,14.2,56,0.00,n/a,n/a,-99.99,Henriksen +1-Wire,2013-04-01 23:41:00,
2013-04-01 19:46:00,43.5,28.0,29.61,NW,324,7.4,14.2,54,0.00,n/a,n/a,-99.99,Henriksen +1-Wire,2013-04-01 23:46:00,
2013-04-01 19:51:00,43.2,27.3,29.61,NW,325,5.1,13.7,53,0.00,n/a,n/a,-99.99,Henriksen +1-Wire,2013-04-01 23:51:00,
2013-04-01 19:56:00,43.0,26.9,29.62,NW,320,3.6,13.7,52,0.00,n/a,n/a,-99.99,Henriksen +1-Wire,2013-04-01 23:56:00,
2013-04-01 20:02:00,42.7,26.6,29.62,NW,317,6.6,10.1,52,0.00,n/a,n/a,-99.99,Henriksen +1-Wire,2013-04-02 00:02:00,
2013-04-01 20:07:00,42.5,26.3,29.62,NNW,327,7.6,10.9,52,0.00,n/a,n/a,-99.99,Henriksen +1-Wire,2013-04-02 00:07:00,
2013-04-01 20:12:00,42.3,26.1,29.62,NNW,334,6.9,14.2,52,0.00,n/a,n/a,-99.99,Henriksen +1-Wire,2013-04-02 00:12:00,
2013-04-01 20:17:00,42.0,25.8,29.63,NNW,331,5.3,14.2,52,0.00,n/a,n/a,-99.99,Henriksen +1-Wire,2013-04-02 00:17:00,
2013-04-01 20:22:00,41.9,25.8,29.63,NW,319,5.7,13.6,52,0.00,n/a,n/a,-99.99,Henriksen +1-Wire,2013-04-02 00:22:00,
2013-04-01 20:27:00,41.7,25.5,29.63,NW,326,6.4,13.6,52,0.00,n/a,n/a,-99.99,Henriksen +1-Wire,2013-04-02 00:27:00,
2013-04-01 20:32:00,41.6,25.2,29.63,NNW,330,6.0,12.0,51,0.00,n/a,n/a,-99.99,Henriksen +1-Wire,2013-04-02 00:32:00,
2013-04-01 20:37:00,41.5,25.0,29.63,NNW,332,5.3,12.0,51,0.00,n/a,n/a,-99.99,Henriksen +1-Wire,2013-04-02 00:37:00,
2013-04-01 20:43:00,41.3,24.9,29.63,NNW,327,5.4,11.3,51,0.00,n/a,n/a,-99.99,Henriksen +1-Wire,2013-04-02 00:43:00,
2013-04-01 20:48:00,41.1,25.2,29.63,NNW,330,5.0,11.3,52,0.00,n/a,n/a,-99.99,Henriksen +1-Wire,2013-04-02 00:48:00,
2013-04-01 20:53:00,41.0,25.5,29.63,NNW,329,3.5,8.8,53,0.00,n/a,n/a,-99.99,Henriksen +1-Wire,2013-04-02 00:53:00,
2013-04-01 20:59:00,40.7,25.5,29.64,NNW,333,5.6,15.8,54,0.00,n/a,n/a,-99.99,Henriksen +1-Wire,2013-04-02 00:59:00,
2013-04-01 21:04:00,40.5,25.6,29.65,NW,317,3.7,15.8,54,0.00,n/a,n/a,-99.99,Henriksen +1-Wire,2013-04-02 01:04:00,
2013-04-01 23:07:00,36.0,16.4,29.70,NNW,337,5.8,11.1,44,0.00,n/a,n/a,-99.99,Henriksen +1-Wire,2013-04-02 03:07:00,
2013-04-01 23:12:00,35.8,16.4,29.70,NW,322,5.9,18.1,44,0.00,n/a,n/a,-99.99,Henriksen +1-Wire,2013-04-02 03:12:00,
2013-04-01 23:18:00,35.6,16.3,29.70,NNW,334,9.1,18.1,45,0.00,n/a,n/a,-99.99,Henriksen +1-Wire,2013-04-02 03:18:00,
2013-04-01 23:23:00,35.5,16.2,29.70,NNW,340,6.2,18.0,45,0.00,n/a,n/a,-99.99,Henriksen +1-Wire,2013-04-02 03:23:00,
2013-04-01 23:29:00,35.3,15.9,29.71,NNW,339,5.8,15.1,44,0.00,n/a,n/a,-99.99,Henriksen +1-Wire,2013-04-02 03:29:00,
2013-04-01 23:34:00,35.1,15.8,29.71,NNW,336,5.3,15.1,44,0.00,n/a,n/a,-99.99,Henriksen +1-Wire,2013-04-02 03:34:00,
2013-04-01 23:39:00,35.0,15.9,29.71,NNW,332,6.3,15.3,45,0.00,n/a,n/a,-99.99,Henriksen +1-Wire,2013-04-02 03:39:00,
2013-04-01 23:44:00,34.9,16.0,29.71,NNW,337,7.2,15.3,45,0.00,n/a,n/a,-99.99,Henriksen +1-Wire,2013-04-02 03:44:00,
2013-04-01 23:49:00,34.8,15.8,29.71,NNW,332,5.3,14.2,45,0.00,n/a,n/a,-99.99,Henriksen +1-Wire,2013-04-02 03:49:00,
2013-04-01 23:54:00,34.6,16.0,29.71,NW,323,6.7,11.8,46,0.00,n/a,n/a,-99.99,Henriksen +1-Wire,2013-04-02 03:54:00,
2013-04-01 23:59:00,34.5,16.4,29.72,NNW,333,7.6,12.0,47,0.00,n/a,n/a,-99.99,Henriksen +1-Wire,2013-04-02 03:59:00,